K3ZED-2 Weather Reports


Display with metric or nautical units.
time (UTC)temp
F
wind
direction
speed
MPH
gust
MPH
rain 1hr
in
rain 24hr
in
rain mn
in
humidity
%
barometer
mb
20260901204558 89 229 0.0 9.0 0.00 0.00 0.00 72 1013.9
20260901203102 88 239 0.0 4.0 0.00 0.00 0.00 73 1014.0
20260901201555 88 265 0.0 3.0 0.00 0.00 0.00 72 1014.1
20260901200056 89 259 0.0 15.0 0.00 0.00 0.00 70 1014.2
20260901194553 90 271 0.0 5.0 0.00 0.00 0.00 71 1014.3
20260901193059 90 234 1.0 8.0 0.00 0.00 0.00 71 1014.5
20260901191549 89 221 1.0 5.0 0.00 0.00 0.00 70 1014.6
20260901190047 89 222 0.0 8.0 0.00 0.00 0.00 70 1014.6
20260901184544 88 214 1.0 7.0 0.00 0.00 0.00 70 1014.9
20260901183045 88 221 0.0 6.0 0.00 0.00 0.00 71 1014.9
20260901181643 89 262 0.0 5.0 0.00 0.00 0.00 70 1014.9
20260901180039 88 239 0.0 5.0 0.00 0.00 0.00 71 1014.9
20260901174537 88 285 0.0 5.0 0.00 0.00 0.00 74 1015.1
20260901173035 87 218 0.0 3.0 0.00 0.00 0.00 75 1015.0
20260901171532 86 246 1.0 6.0 0.00 0.00 0.00 76 1015.3
20260901170028 84 214 0.0 2.0 0.00 0.00 0.00 79 1015.4
20260901164525 83 237 0.0 2.0 0.00 0.00 0.00 80 1015.8
20260901163023 82 244 0.0 1.0 0.00 0.00 0.00 80 1016.0
20260901161523 82 235 0.0 2.0 0.00 0.00 0.00 80 1016.0
20260901160023 82 224 0.0 4.0 0.00 0.00 0.00 80 1016.1
20260901154521 83 245 0.0 0.0 0.00 0.00 0.00 78 1016.1
20260901153022 83 254 0.0 4.0 0.00 0.00 0.00 77 1016.1
20260901151519 84 260 1.0 4.0 0.00 0.00 0.00 76 1016.1
20260901150016 83 269 0.0 4.0 0.00 0.00 0.00 76 1016.2
20260901144513 82 293 0.0 3.0 0.00 0.00 0.00 80 1016.3
20260901143009 80 241 1.0 3.0 0.00 0.00 0.00 81 1016.3
20260901141504 79 236 0.0 3.0 0.00 0.00 0.00 84 1016.3
20260901140000 77 269 0.0 3.0 0.00 0.00 0.00 88 1016.6
20260901134613 76 247 0.0 1.0 0.00 0.00 0.00 88 1016.3
20260901133058 76 222 0.0 2.0 0.00 0.00 0.00 88 1016.3
20260901131602 76 230 0.0 2.0 0.00 0.00 0.00 89 1016.3
20260901130054 76 242 0.0 1.0 0.00 0.00 0.00 91 1016.4
20260901124551 75 247 0.0 4.0 0.00 0.00 0.00 93 1016.7
20260901123048 74 244 0.0 3.0 0.00 0.00 0.00 95 1016.6
20260901121547 74 220 0.0 4.0 0.00 0.00 0.00 95 1016.6
20260901120044 73 244 0.0 1.0 0.00 0.00 0.00 95 1016.7
20260901114540 72 207 0.0 0.0 0.00 0.00 0.00 96 1017.0
20260901113032 71 207 0.0 0.0 0.00 0.00 0.00 96 1016.7
20260901111529 70 208 0.0 0.0 0.00 0.00 0.00 95 1016.6
20260901110032 70 208 0.0 0.0 0.00 0.00 0.00 95 1016.8
20260901104531 70 208 0.0 0.0 0.00 0.00 0.00 95 1016.5
20260901103027 70 208 0.0 0.0 0.00 0.00 0.00 95 1016.6
20260901101526 70 208 0.0 0.0 0.00 0.00 0.00 95 1016.4
20260901100026 70 208 0.0 0.0 0.00 0.00 0.00 94 1016.4
20260901094528 70 208 0.0 0.0 0.00 0.01 0.00 94 1016.4
20260901093024 70 208 0.0 0.0 0.00 0.01 0.00 94 1016.5
20260901091523 70 208 0.0 0.0 0.00 0.01 0.00 94 1016.6
20260901090017 70 208 0.0 0.0 0.00 0.01 0.00 94 1016.7
20260901084515 70 208 0.0 0.0 0.00 0.01 0.00 94 1016.8
20260901083022 70 208 0.0 0.0 0.00 0.01 0.00 94 1016.8
20260901081517 70 208 0.0 0.0 0.00 0.01 0.00 94 1016.8
20260901080012 70 208 0.0 0.0 0.00 0.01 0.00 94 1016.8
20260901074511 70 208 0.0 0.0 0.00 0.01 0.00 94 1016.7
20260901073010 70 208 0.0 0.0 0.00 0.01 0.00 93 1016.8
20260901071508 70 208 0.0 0.0 0.00 0.01 0.00 93 1016.9
20260901070017 70 208 0.0 0.0 0.00 0.01 0.00 93 1016.9
20260901064507 70 208 0.0 0.0 0.00 0.01 0.00 93 1017.2
20260901063006 70 208 0.0 0.0 0.00 0.01 0.00 93 1017.3
20260901061503 70 208 0.0 0.0 0.00 0.01 0.00 93 1017.4
20260901060001 70 208 0.0 0.0 0.00 0.01 0.00 93 1017.5
20260901054501 70 208 0.0 0.0 0.00 0.07 0.00 93 1017.5
20260901053058 70 208 0.0 0.0 0.00 0.07 0.00 93 1017.6
20260901051553 71 208 0.0 0.0 0.00 0.07 0.00 93 1017.8
20260901050049 71 208 0.0 0.0 0.00 0.07 0.00 93 1018.0
20260901044547 71 208 0.0 0.0 0.00 0.07 0.00 93 1017.9
20260901043042 71 208 0.0 0.0 0.00 0.07 0.00 92 1018.2
20260901041537 71 208 0.0 0.0 0.00 0.07 0.00 93 1018.3
20260901040032 70 176 0.0 0.0 0.00 0.07 0.00 93 1018.2
20260901034536 70 176 0.0 0.0 0.00 0.08 0.07 93 1018.4
20260901033032 70 175 0.0 0.0 0.00 0.08 0.07 92 1018.5
20260901031532 70 175 0.0 0.0 0.00 0.08 0.07 92 1018.4
20260901030030 70 175 0.0 0.0 0.00 0.08 0.07 91 1018.4
20260901024530 70 175 0.0 0.0 0.00 0.08 0.07 91 1018.5
20260901023039 70 175 0.0 0.0 0.00 0.08 0.07 91 1018.4
20260901021534 71 175 0.0 0.0 0.00 0.08 0.07 90 1018.4
20260901020029 71 175 0.0 0.0 0.00 0.08 0.07 90 1018.4
20260901014528 72 175 0.0 0.0 0.00 0.08 0.07 89 1018.4
20260901013029 72 175 0.0 0.0 0.00 0.08 0.07 89 1018.3
20260901011526 72 175 0.0 0.0 0.00 0.08 0.07 88 1018.4
20260901010026 73 175 0.0 0.0 0.00 0.08 0.07 88 1018.3
20260901004526 73 175 0.0 0.0 0.00 0.08 0.07 87 1018.2
20260901003025 74 174 0.0 0.0 0.00 0.08 0.07 85 1018.2
20260901001525 75 174 0.0 0.0 0.00 0.08 0.07 85 1018.0
20260901000024 76 174 0.0 0.0 0.00 0.08 0.07 83 1017.8
20260831234524 77 186 0.0 0.0 0.00 0.08 0.07 82 1017.9
20260831233023 78 188 0.0 1.0 0.00 0.08 0.07 81 1017.8
20260831231529 78 180 0.0 2.0 0.00 0.08 0.07 80 1018.1
20260831230024 79 169 0.0 1.0 0.00 0.08 0.07 79 1018.2
20260831224520 80 183 0.0 2.0 0.00 0.08 0.07 79 1018.4
20260831223020 81 144 0.0 2.0 0.00 0.08 0.07 78 1018.3
20260831221517 81 158 0.0 0.0 0.00 0.08 0.07 78 1018.5
20260831220017 81 212 0.0 2.0 0.00 0.08 0.07 78 1018.6
20260831214517 82 181 0.0 1.0 0.00 0.08 0.07 76 1018.5
20260831213016 81 178 0.0 0.0 0.00 0.08 0.07 76 1018.5
20260831211528 82 176 0.0 1.0 0.00 0.08 0.07 75 1018.7
20260831210014 82 86 0.0 1.0 0.00 0.08 0.07 76 1018.7